Regional Weather Roundup
Issued by NWS State College, PA

Home | Current Version | Previous Version | Text Only | Print | Product List | Glossary On
Versions: 1 2 3 4 5 6 7 8 9 10 11 12 13 14 15 16 17 18 19 20 21 22 23 24 25 26 27 28 29 30 31 32 33 34 35 36 37 38 39 40 41 42 43 44 45 46 47 48 49 50
406
ASUS41 KCTP 121703
RWRCTP

REGIONAL WEATHER ROUNDUP
NATIONAL WEATHER SERVICE STATE COLLEGE PA
1200 PM EST TUE DEC 12 2017

Note: "fair" indicates few or no clouds below 12,000 feet with no
significant weather and/or obstructions to visibility.

* = STATION THAT DOES NOT REPORT PRECIPITATION /E.G. RAIN...SNOW...ETC/
    THUNDER OR FOG.

PAZ002>004-007>009-013>016-020>023-029>032-121800-
WESTERN PENNSYLVANIA

CITY           SKY/WX    TMP DP  RH WIND       PRES   REMARKS
ERIE           CLOUDY    23  12  62 W15G30    29.69F WCI  10
MEADVILLE      CLOUDY    20  11  68 W17G26    29.67R WCI   5
FRANKLIN*      FLURRIES  22  15  75 NW10      29.65S WCI  11
NEW CASTLE     NOT AVBL
BEAVER COUNTY  LGT SNOW  25  19  80 NW8G18    29.69S VSB 1
BUTLER*        FLURRIES  26  18  71 NW13G22   29.68S WCI  15
PITTSBURGH INT LGT SNOW  29  22  75 NW22G29   29.67S
PITTSBURGH     CLOUDY    28  18  66 W16G26    29.64F
INDIANA*       CLOUDY    28  25  86 NW13G20   29.64S HAZE
LATROBE        PTSUNNY   30  23  74 NW17G29   29.65S
WASHINGTON CO* CLOUDY    28  20  71 NW17G30   29.72R
$$

PAZ004>006-010>012-017>019-024>028-033>037-041-042-045-046-049>053-121800-
CENTRAL PENNSYLVANIA

CITY           SKY/WX    TMP DP  RH WIND       PRES   REMARKS
BRADFORD       SNOW      23  20  88 W18G31    29.52R VSB 1/2 WCI   9
DUBOIS         CLOUDY    24  18  77 W18G28    29.56S HAZE    WCI  10
CLEARFIELD     LGT SNOW  28  22  78 NW20G31   29.55R VSB 3/4 WCI  15
JOHNSTOWN      SNOW      25  23  92 W18G29    29.54S VSB 1/2 WCI  11
ALTOONA        CLOUDY    35  28  75 W16       29.54F
STATE COLLEGE  CLOUDY    34  28  80 W12       29.52F
WILLIAMSPORT   CLOUDY    40  33  76 W13       29.49F
SELINSGROVE    CLOUDY    41  32  70 VRB5      29.52F
FT INDIANTOWN  CLOUDY    43  31  62 W17G23    29.50F
CAPITAL CITY   CLOUDY    45  29  53 W12G22    29.51F
HARRISBURG     CLOUDY    44  31  60 W17       29.50F
YORK           CLOUDY    45  30  55 W17G26    29.50F
$$

PAZ038>040-043-044-047-048-054-055-060>062-067>071-121800-
EASTERN PENNSYLVANIA

CITY           SKY/WX    TMP DP  RH WIND       PRES   REMARKS
SCRANTON       CLOUDY    40  31  70 SW9       29.46F
MOUNT POCONO   CLOUDY    33  31  92 SW5       29.43F
ALLENTOWN      CLOUDY    41  32  70 S8        29.49F
QUAKERTOWN*    CLOUDY    39  34  81 SW3       29.50F
READING        CLOUDY    42  35  76 SW7       29.49F
LANCASTER      CLOUDY    41  34  76 W7        29.50F
COATESVILLE    CLOUDY    41  36  81 CALM      29.50F
POTTSTOWN      CLOUDY    40  33  76 SW5       29.51F
BLUE BELL      CLOUDY    43  34  70 SW3       29.51F
DOYLESTOWN     CLOUDY    42  33  70 SW5       29.49F
WILLOW GROVE   NOT AVBL
NORTH PHILA    CLOUDY    46  36  68 SW6       29.52F
PHILADELPHIA   CLOUDY    45  35  68 SW12      29.52F
$$




USA.gov is the U.S. government's official web portal to all federal, state and local government web resources and services.